sat.trackr.live / text

‹ back to catalog

GALAXY 18 (G-18)

NORAD 32951 · 2008-024A

PAYLOAD ACTIVE UNKNOWN

§ Identity

Operator
Country
US
Launch date
2008-05-21
Launch site
SEAL
Launch vehicle
Mass (kg)
RCS (m²)
20.98

Purposes: comms

External: N2YO · Heavens-Above · Gunter

§ Orbital elements

Epoch: 2026-09-13T01:17:39.534720Z

Period
1,436.09 min
Inclination
0.0109°
Eccentricity
0.0002985
Mean motion
1.00272235 rev/d
Perigee alt
35,773.9 km
Apogee alt
35,799.1 km
Semi-major
42,164.6 km
B*
0.0000e+0
RAAN
172.0371°
Arg perigee
6.7049°
Mean anomaly
69.7241°
Rev number
4,673

§ Raw data

GALAXY 18 (G-18)1 32951U 08024A   26256.05392980  .00000013  00000+0  00000+0 0  99932 32951   0.0109 172.0371 0002985   6.7049  69.7241  1.00272235 46734

JSON: /api/v1/satellites/32951 · /tle

For live sub-satellite position, see the globe view (requires WebGL).

§ Visibility from observer

Set your observer location to see the next 7 days of passes ≥ 10°. The values pass through the URL so the page stays shareable.

No JS? Fill the form by hand. The geolocation button needs JavaScript.